Observations for Trim Market St
| Time | AQI | Temp °C | Hum % | Pres Pa | CO μg/m³ | H₂S μg/m³ | NO μg/m³ | NO₂ μg/m³ | O₃ μg/m³ | SO₂ μg/m³ | PM1 μg/m³ | PM2.5 μg/m³ | PM10 μg/m³ |
|---|---|---|---|---|---|---|---|---|---|---|---|---|---|
| Wednesday 26 August 2026 | |||||||||||||
| 15:39 | 2 | 30.8 | 45 | 65,590 | 0 | 0 | 1.99 | 11.33 | 69.51 | 0 | 2.14 | 5.29 | 5.97 |
| 15:38 | 2 | 30.7 | 45 | 65,527 | 0 | 0 | 1.96 | 15.54 | 64.64 | 0 | 2.85 | 6.32 | 10.63 |
| 15:36 | 2 | 30.6 | 46 | 65,406 | 0 | 0 | 2.02 | 13.53 | 67.31 | 0 | 3.56 | 6.29 | 8.3 |
| 15:34 | 2 | 30.4 | 46 | 65,285 | 0 | 0 | 2.05 | 14.11 | 68.03 | 0 | 2.85 | 5.22 | 5.99 |
| 15:30 | 2 | 30 | 47 | 64,981 | 0 | 0 | 2.1 | 14.21 | 67.04 | 0 | 4.28 | 6.73 | 8.29 |
| 15:29 | 2 | 29.8 | 47 | 64,927 | 0 | 0 | 2.05 | 11.96 | 68.16 | 0 | 4.28 | 6.2 | 7.53 |
| 15:27 | 2 | 29.8 | 48 | 64,680 | 0 | 0 | 2.04 | 14.05 | 65.58 | 0 | 2.14 | 4.62 | 5.25 |
| 15:26 | 2 | 29.7 | 48 | 64,592 | 0 | 0 | 1.85 | 12.18 | 66.88 | 0 | 2.85 | 6.16 | 7.53 |
| 15:00 | 2 | 28 | 54 | 55,563 | 0 | 0 | 2.72 | 19 | 47.55 | 0 | 2.85 | 5.86 | 7.53 |
| 14:59 | 2 | 28 | 54 | 55,560 | 0.05 | 0 | 2.72 | 42.07 | 45.42 | 0 | 4.99 | 8.41 | 11.15 |
| 14:58 | 2 | 28.1 | 54 | 55,545 | 0 | 0 | 2.69 | 11.35 | 58.82 | 0 | 6.41 | 9.42 | 12.59 |
| 14:57 | 2 | 28 | 54 | 55,612 | 0 | 0 | 2.14 | 12.85 | 58.91 | 0 | 4.99 | 7.9 | 11.15 |
| 14:56 | 2 | 28 | 54 | 55,613 | 0 | 0 | 2.12 | 12.37 | 58.91 | 0 | 6.41 | 9.94 | 14.05 |
| 14:55 | 2 | 28 | 54 | 55,602 | 0 | 0 | 2.25 | 11.4 | 57.44 | 0 | 4.28 | 6.37 | 10.42 |
| 14:54 | 2 | 28 | 54 | 55,623 | 0 | 0 | 2.55 | 11.51 | 56.6 | 0 | 4.99 | 7.39 | 9.7 |
| 14:53 | 2 | 28 | 54 | 55,727 | 0 | 0 | 2.56 | 10.83 | 55.44 | 0 | 5.7 | 8.4 | 12.59 |
| 14:52 | 2 | 28 | 54 | 55,761 | 0 | 0 | 2.52 | 10.94 | 52.1 | 0 | 5.7 | 9.42 | 13.31 |
| 14:51 | 2 | 28 | 54 | 55,596 | 0 | 0 | 2.48 | 36.59 | 46.81 | 0 | 5.7 | 8.9 | 11.86 |
| 14:50 | 2 | 28 | 54 | 55,659 | 0 | 0 | 2.44 | 7.98 | 54.81 | 0 | 4.28 | 7.88 | 11.14 |
| 14:49 | 2 | 27.9 | 54 | 55,712 | 0.04 | 0 | 2.15 | 7.61 | 53.36 | 0 | 7.13 | 8.88 | 14.01 |